Regional Weather Roundup
Issued by NWS

Home | Current Version | Previous Version | Graphics & Text | Print | Product List | Glossary On
Versions: 1 2 3 4 5 6 7 8 9 10 11 12 13 14 15 16 17 18 19 20 21 22 23 24 25 26 27 28 29 30 31 32 33 34 35 36 37 38 39 40 41 42 43 44 45 46 47 48 49 50
658
ASUS43 KTOP 180359
RWRKS

WEATHER ROUNDUP FOR KANSAS
NATIONAL WEATHER SERVICE GOODLAND KS
1000 PM CST WED JAN 17 2018

NOTE:  "FAIR" INDICATES FEW OR NO CLOUDS BELOW 12,000 FEET WITH NO
SIGNIFICANT WEATHER AND/OR OBSTRUCTIONS TO VISIBILITY.

KSZ001>006-013>018-027>032-041>047-180500-
NORTHWEST KANSAS

CITY           SKY/WX    TMP DP  RH WIND       PRES   REMARKS
GOODLAND       CLEAR     23   9  55 W9        30.22F
HAYS           CLOUDY    21  10  62 S3        30.30F
HILL CITY      CLOUDY    22  11  62 W5        30.28F
RUSSELL        CLEAR     25  11  55 S16       30.30F WCI  12
$$

KSZ061>065-074>080-084>089-180500-
SOUTHWEST KANSAS

CITY           SKY/WX    TMP DP  RH WIND       PRES   REMARKS
DODGE CITY     CLOUDY    25   5  42 S12       30.29F WCI  14
GARDEN CITY    CLEAR     23   8  52 CALM      30.27S
GREAT BEND     CLEAR     20   9  62 S8        30.34F
LIBERAL        CLOUDY    24  11  57 S12       30.30F WCI  13
$$

KSZ066>073-081>083-090>101-180500-
SOUTHEAST KANSAS

CITY           SKY/WX    TMP DP  RH WIND       PRES   REMARKS
CHANUTE        CLOUDY    12   8  84 S6        30.49F
COFFEYVILLE    CLOUDY    15   7  70 S6        30.53F
HUTCHINSON     CLOUDY    24   8  50 S12       30.39F WCI  13
MEDICINE LODGE   N/A     24   3  40 S8        30.40F
NEWTON         CLOUDY    18  10  71 S13       30.40F WCI   5
PARSONS        CLOUDY    15   8  73 S5        30.52F
WICHITA INTL   CLOUDY    19   8  62 S9        30.42F
WICHITA JABRA  CLOUDY    19   9  65 S9        30.42F
WICHITA MCCONL CLOUDY    23   6  47 S12       30.42F WCI  12
WINFIELD       CLOUDY    21   8  57 S9        30.47F
$$

KSZ007>012-019>026-033>040-048>060-102>105-180500-
NORTHEAST KANSAS

CITY           SKY/WX    TMP DP  RH WIND       PRES   REMARKS
CONCORDIA      CLOUDY    23  11  60 S15       30.33F WCI  10
EMPORIA        CLOUDY    17  11  77 S12       30.43F WCI   4
LAWRENCE       CLOUDY    15   9  76 SE5       30.45F
MANHATTAN      CLOUDY    18  11  74 SW6       30.41F
OLATHE IND     CLOUDY    14   9  80 S8        30.45F
OLATHE EXE     CLOUDY    14   9  80 SW9       30.44F
SALINA         CLEAR     24  11  57 S12       30.38F WCI  13
TOPEKA BILLARD CLOUDY    19  13  77 S5        30.44F
TOPEKA FORBES  CLOUDY    19  12  74 S10       30.42F WCI   7
$$




USA.gov is the U.S. government's official web portal to all federal, state and local government web resources and services.